Location: Ash Shall?l al Awwal
(24.0167°N, 32.8667°E)
Time: 19:23:36
(UTC+00:00)

GPS 2-12 Rocket1 - Pass Details

Date: 02 March 2021
Orbit: 586 x 651 km, 20.0° (Epoch: 09 April)

Event Time Altitude Azimuth Distance (km) Brightness Sun altitude
Rises 17:19:03 0° 239° (WSW) 2,932 7.5 -20.7°
Reaches altitude 10° 17:21:37 10° 229° (SW) 2,030 6.3 -21.3°
Maximum altitude 17:25:52 32° 167° (SSE) 1,114 4.2 -22.3°
Enters shadow 17:26:02 31° 162° (SSE) 1,116 4.1 -22.3°
